Location: Montjuich
(41.3670°N, 2.1670°E)
Time: 10:56:15
(UTC+02:00)

ISS - Visible Passes

Search period start: 24 July 2017 00:00
Search period end: 03 August 2017 00:00
Orbit: 400 x 408 km, 51.6° (Epoch: 24 July)

Date Brightness Start Highest point End Pass type
(mag) Time Alt. Az. Time Alt. Az. Time Alt. Az.
24 Jul -0.8 00:59:05 10° NW 01:01:16 17° NNW 01:03:28 10° NNE visible
24 Jul -0.6 02:36:49 10° NNW 02:38:44 15° N 02:40:39 10° NE visible
24 Jul -2.2 04:12:53 10° NW 04:15:55 35° NNE 04:18:57 10° E visible
24 Jul -3.0 05:49:28 10° WNW 05:52:20 29° SW 05:55:13 10° SSE visible
24 Jul -4.0 22:28:42 10° SW 22:31:57 79° SE 22:35:12 10° ENE visible
25 Jul -1.1 00:06:11 10° WNW 00:08:44 21° NNW 00:11:17 10° NNE visible
25 Jul -0.5 01:44:23 10° NNW 01:46:07 14° N 01:47:52 10° NE visible
25 Jul -1.4 03:20:44 10° NW 03:23:28 24° NNE 03:26:12 10° ENE visible
25 Jul -3.9 04:56:56 10° WNW 05:00:09 57° SW 05:03:21 10° SE visible
25 Jul -1.7 23:13:20 10° W 23:16:14 29° NNW 23:19:08 10° NE visible
26 Jul -0.5 00:51:42 10° NW 00:53:30 14° N 00:55:18 10° NNE visible
26 Jul -0.7 02:28:35 10° NNW 02:29:16 13° NNW 02:29:16 13° NNW visible
26 Jul -2.6 22:20:39 10° WSW 22:23:48 45° NNW 22:26:57 10° NE visible
26 Jul -0.7 23:58:48 10° NW 00:00:53 16° N 00:02:58 10° NNE visible
27 Jul -0.6 01:36:20 10° NNW 01:37:56 15° N 01:37:56 15° N visible
27 Jul -1.0 23:05:52 10° WNW 23:08:17 19° NNW 23:10:44 10° NNE visible
28 Jul -0.7 00:43:56 10° NNW 00:45:42 14° N 00:46:57 12° NNE visible
28 Jul -1.5 22:12:57 10° W 22:15:44 25° NNW 22:18:31 10° NE visible
28 Jul -0.7 23:51:18 10° NW 23:53:02 14° N 23:54:48 10° NNE visible
29 Jul -0.6 01:27:58 10° NNW 01:28:42 14° NNW 01:28:42 14° NNW visible
29 Jul -0.8 22:58:25 10° NW 23:00:23 15° N 23:02:20 10° NNE visible
30 Jul -1.0 00:35:43 10° NNW 00:37:51 16° NNE 00:37:53 16° NNE visible
30 Jul -0.9 22:05:26 10° WNW 22:07:44 18° NNW 22:10:02 10° NNE visible
30 Jul -0.8 23:43:21 10° NNW 23:45:11 14° N 23:47:00 10° NE visible
31 Jul -0.5 01:19:28 10° NW 01:19:44 12° NW 01:19:44 12° NW visible
31 Jul -0.9 22:50:44 10° NNW 22:52:28 14° N 22:54:12 10° NNE visible
01 Aug -1.1 00:27:14 10° NNW 00:28:59 19° N 00:28:59 19° N visible
01 Aug -0.9 21:57:54 10° NW 21:59:46 14° N 22:01:38 10° NNE visible
01 Aug -1.3 23:34:58 10° NNW 23:37:13 17° NNE 23:38:14 15° NE visible
02 Aug -1.0 22:42:36 10° NNW 22:44:31 15° N 22:46:26 10° NE visible
